Wind_Speed
6 8 6 7 9 15 18 14 11 16 18 16 13 11 13 16 16 16 18 20 19 17 18 18 17 16 15 13 13 14 14 13 12 12 13 16 19 19 19 19 19 19 18 17 16 15 14 14 15 15 15 16 16 16 16 16 15 16 17 17 17 16 16
8 8 9 10 12 17 19 16 14 16 17 16 15 13 13 18 18 16 17 19 17 15 16 17 17 17 16 15 13 14 15 14 13 12 13 15 17 19 20 22 22 21 21 20 19 17 16 15 16 16 17 17 17 17 17 17 17 17 17 17 17 17 16
11 11 11 12 13 15 19 20 20 19 16 14 15 15 16 17 17 17 18 18 17 15 14 14 16 17 18 16 15 14 15 14 14 15 16 17 18 19 20 23 24 23 23 22 21 20 18 17 16 17 17 17 18 18 18 18 17 17 17 17 18 17 17
15 16 13 13 14 13 17 23 23 22 19 16 16 17 17 16 15 17 18 18 17 16 14 12 14 17 18 18 16 15 15 15 16 17 17 18 19 19 20 22 23 23 24 25 24 22 20 18 17 17 17 18 19 19 19 19 18 18 18 18 18 18 17
16 19 17 15 16 16 18 26 27 25 22 19 19 20 20 20 19 18 18 18 18 16 15 14 15 17 19 19 17 16 16 17 18 18 18 18 19 20 21 22 23 24 25 26 26 25 23 21 19 18 18 18 19 19 19 19 19 20 20 19 19 19 19
15 20 20 17 17 19 21 28 31 29 25 22 21 20 20 21 20 19 19 19 20 19 19 19 17 17 19 19 18 17 17 19 20 21 20 20 19 19 20 22 23 24 25 26 27 27 26 23 20 19 19 19 18 19 19 20 20 21 21 21 21 20 20
14 19 20 18 17 19 22 27 32 31 27 25 25 23 21 20 20 20 21 21 22 21 20 21 20 18 18 19 19 18 18 19 20 20 21 20 20 19 18 20 22 23 24 27 29 28 26 24 23 22 20 20 20 19 19 20 21 23 23 23 22 22 22
13 17 20 19 17 19 22 25 30 33 31 29 27 26 25 22 22 23 23 21 23 23 21 20 20 19 18 18 19 20 20 19 19 19 19 20 20 20 20 21 23 22 24 29 30 29 27 25 25 24 22 22 21 20 20 20 22 24 24 25 24 23 23
10 14 18 19 19 20 23 26 27 31 34 33 30 29 27 25 24 26 26 23 24 25 23 20 19 19 19 17 17 19 20 20 19 19 19 21 22 22 22 24 25 24 25 29 31 29 28 27 25 25 24 23 22 21 20 21 21 22 23 25 26 26 25
10 12 16 18 19 20 22 26 28 29 33 35 35 33 31 30 28 27 28 28 27 26 25 22 19 19 19 18 17 18 20 20 20 19 21 23 24 24 22 23 25 25 26 29 30 30 30 29 27 26 25 24 23 22 21 20 20 19 20 22 24 25 25
9 10 13 16 17 18 19 22 26 28 30 34 36 34 33 34 33 31 30 31 31 27 24 23 23 21 20 20 18 18 19 21 21 21 22 23 25 24 21 20 23 26 27 29 31 31 31 30 29 27 25 24 23 22 22 22 21 19 19 20 22 24 25
7 8 10 12 14 16 17 20 23 26 28 30 34 36 34 34 36 36 32 31 32 30 26 24 25 24 21 20 20 18 19 20 21 22 22 22 22 22 21 21 21 25 29 32 33 33 31 31 31 29 26 25 25 24 24 24 23 22 22 22 22 23 24
6 7 8 8 11 14 16 18 21 24 25 28 32 36 36 35 35 37 36 33 32 31 28 27 28 25 22 22 22 20 20 20 21 22 22 20 18 17 18 20 21 25 32 36 36 34 31 31 31 30 29 28 27 26 25 24 24 24 24 24 24 23 22
7 8 9 8 9 12 14 15 19 21 24 26 28 31 35 36 34 34 34 34 33 31 29 29 30 27 23 24 24 22 21 22 22 23 22 19 18 17 17 19 22 26 31 36 37 36 34 32 31 30 31 31 30 29 27 27 27 25 24 24 25 23 21
7 7 9 9 8 8 10 11 13 16 19 21 22 25 29 34 35 33 30 30 31 31 30 30 30 28 24 24 25 24 22 22 22 22 21 20 22 22 20 19 22 25 29 34 37 37 36 36 34 32 31 32 33 32 31 30 29 28 26 26 26 25 22
7 6 8 9 8 7 9 10 11 13 14 15 17 19 24 30 33 32 29 26 25 26 29 29 30 29 25 24 24 25 23 22 21 20 20 20 22 23 22 22 23 25 28 33 36 36 35 35 36 34 32 32 33 34 34 33 32 31 29 28 29 28 24
8 7 7 7 8 8 9 10 12 13 14 14 14 16 21 26 29 29 27 25 23 23 25 26 28 29 27 24 24 25 24 23 21 20 19 19 18 17 18 21 23 24 27 31 35 36 35 34 35 34 33 33 34 34 34 34 33 32 31 31 31 29 26
9 9 7 7 8 8 8 8 10 11 13 15 15 15 17 21 24 25 24 24 24 23 22 22 25 27 26 24 24 25 25 23 21 20 19 19 17 15 16 19 22 25 26 29 33 37 37 37 37 36 34 34 33 31 31 32 32 32 33 33 32 30 28
9 9 8 7 7 8 8 8 9 10 11 12 13 12 13 15 18 21 22 22 22 21 20 21 22 23 22 22 23 24 24 23 22 21 21 20 19 19 19 19 21 24 26 27 29 34 39 41 40 38 37 36 33 30 31 32 32 31 31 32 32 31 30
9 9 9 8 7 9 9 9 9 9 9 7 5 6 8 11 13 16 18 20 20 19 19 22 23 21 21 21 22 22 21 21 21 22 21 20 21 23 23 21 19 19 22 25 27 31 35 38 40 39 38 38 35 33 32 32 30 30 29 30 32 33 33
12 12 11 11 10 11 11 9 8 8 7 5 4 4 6 8 10 12 14 16 17 17 17 19 22 22 21 21 21 21 20 19 19 21 22 20 18 19 21 21 18 14 12 15 22 27 30 32 35 37 38 39 38 36 34 32 31 32 32 32 33 35 37
17 17 16 15 13 12 13 11 8 7 7 6 5 4 6 7 8 10 12 13 14 15 16 17 19 21 21 21 21 22 20 18 16 18 23 24 19 16 16 18 16 12 8 7 11 16 21 24 28 33 35 37 38 37 35 33 33 35 35 35 35 37 38
20 19 18 16 14 11 11 10 8 7 7 7 6 5 5 6 8 10 11 12 12 13 15 16 16 18 21 21 22 22 21 19 16 15 21 26 23 18 16 15 14 12 9 7 7 8 10 12 16 23 30 34 36 37 36 36 37 36 35 35 37 39 40
17 16 16 16 13 10 9 9 9 8 7 7 7 6 5 6 7 8 10 11 11 11 12 13 14 17 19 21 23 23 22 21 18 16 19 23 23 19 16 14 12 11 9 7 6 7 7 7 7 10 17 25 31 34 36 36 34 31 29 30 34 38 40
14 14 14 14 11 8 7 7 7 8 7 8 7 7 7 7 7 7 8 9 10 11 11 11 12 14 17 20 22 23 21 20 18 16 18 22 21 15 12 11 9 8 8 6 6 6 6 7 6 5 6 9 15 21 27 29 28 24 23 24 26 30 34
14 13 13 12 10 6 5 6 6 7 7 8 8 8 8 8 8 8 7 7 7 9 10 10 11 12 14 17 19 20 18 17 16 14 14 20 19 13 11 11 10 9 9 6 6 6 6 7 7 7 7 6 7 10 14 19 22 20 18 20 23 24 25
14 13 11 12 12 9 7 7 7 7 8 9 9 9 9 9 9 8 7 6 6 6 8 10 10 10 10 12 14 15 13 13 14 11 9 12 14 12 11 10 10 10 10 8 7 7 7 7 6 6 7 7 8 10 11 14 17 17 16 18 20 16 11
16 16 13 11 11 11 9 8 9 9 10 10 10 10 11 11 10 10 8 7 6 6 7 8 9 8 8 8 9 11 11 11 13 13 10 8 8 7 7 8 9 10 10 9 9 8 9 9 8 7 6 6 7 9 11 13 16 18 18 21 21 14 8
16 15 13 11 12 11 10 9 10 10 11 11 11 11 12 12 12 12 11 9 8 7 6 7 8 8 7 7 7 7 8 11 14 15 14 10 7 5 6 8 9 10 11 11 10 10 10 10 10 9 8 8 8 9 10 11 13 15 16 18 20 18 14
12 11 11 12 12 11 10 10 11 11 11 12 13 13 14 14 15 15 14 12 10 9 8 8 9 9 8 8 8 7 8 10 13 15 16 15 12 9 8 9 11 12 12 12 12 11 11 11 11 10 10 10 10 11 11 12 12 12 12 11 12 14 14
9 9 10 11 10 10 11 12 13 13 13 14 14 14 15 16 17 17 16 14 12 10 10 9 10 10 10 9 9 9 8 9 11 14 17 17 15 12 11 12 13 13 14 14 13 12 12 11 11 11 10 10 11 10 11 13 14 14 13 11 9 9 11
8 7 8 10 10 11 12 12 13 14 15 15 14 14 14 15 17 17 16 15 13 12 11 11 10 10 10 10 10 10 9 9 10 13 15 16 15 14 14 14 15 16 16 16 14 13 13 12 11 11 10 10 10 10 10 11 13 14 13 11 9 8 9
9 9 10 11 11 11 11 11 12 13 15 15 13 11 11 12 16 18 17 16 15 14 13 12 11 10 10 10 10 11 11 11 11 12 12 13 13 14 15 16 17 18 18 18 17 15 14 13 12 12 11 11 10 10 10 9 10 11 12 11 10 9 9
10 10 11 12 11 11 10 10 11 12 13 14 11 8 8 10 13 16 17 16 15 15 14 14 13 12 10 10 10 11 12 14 15 15 14 12 12 13 15 17 19 20 20 20 19 18 16 15 14 13 13 12 12 11 11 11 10 10 11 11 11 11 11
13 13 14 14 13 12 11 11 11 11 11 11 10 6 6 9 13 15 16 15 14 14 14 15 14 13 12 11 11 11 12 13 15 17 17 16 15 15 16 18 19 21 22 22 21 20 19 18 17 16 15 14 14 13 13 12 12 12 12 12 13 13 13
16 15 14 13 12 12 11 12 12 10 9 10 9 5 3 8 12 15 15 13 12 13 14 15 15 14 13 13 13 13 12 12 13 15 16 17 17 16 17 19 20 21 22 23 23 22 21 20 19 18 18 17 16 16 16 15 15 15 15 15 15 15 15
17 15 13 12 11 10 10 10 11 10 8 8 7 5 2 5 9 12 13 12 12 12 13 14 14 14 14 14 15 15 14 13 13 15 16 17 17 18 18 20 21 22 23 24 24 24 23 22 21 20 20 19 19 19 19 18 18 18 18 18 18 18 18
Wind_Direction
227 243 233 231 210 208 221 227 234 234 224 217 218 226 236 235 239 245 237 231 230 229 229 226 224 225 219 216 230 239 237 231 231 233 227 212 205 208 212 209 204 199 196 196 202 207 202 198 200 196 190 188 186 187 186 183 184 183 180 179 177 176 175
235 236 219 225 217 210 218 215 209 218 221 219 211 196 205 220 229 242 242 233 232 236 237 234 232 232 227 222 227 239 243 236 231 230 229 221 208 203 208 211 208 202 197 195 199 206 205 201 205 204 196 191 189 189 190 188 188 188 185 182 181 180 180
236 243 235 238 239 226 215 207 205 208 209 215 215 200 202 217 230 242 243 237 235 237 237 238 241 236 231 229 227 231 239 240 235 230 228 226 217 207 208 212 211 204 198 196 199 205 207 205 208 210 203 196 193 191 191 192 192 192 190 188 186 184 185
227 240 253 245 244 246 222 208 207 208 206 206 210 212 217 224 232 240 245 245 240 237 235 235 241 240 232 228 224 221 225 232 235 236 234 233 229 223 218 216 215 211 203 199 200 205 208 206 209 213 208 201 198 195 193 193 194 195 195 193 191 190 189
228 234 252 246 238 245 227 211 208 210 212 210 207 211 220 223 223 227 235 242 239 237 239 236 234 237 233 228 224 217 215 221 229 235 237 236 236 234 228 222 219 219 214 205 201 204 208 207 207 211 211 206 203 200 196 193 195 198 199 197 195 195 195
231 230 247 252 241 238 227 214 211 212 214 213 211 213 217 218 218 219 223 229 231 229 232 233 228 227 229 228 226 221 216 217 223 230 232 233 235 235 233 228 220 218 220 215 206 204 206 206 206 209 212 210 207 205 201 197 197 200 201 200 199 198 198
237 234 246 254 245 237 233 222 215 215 216 214 215 220 224 221 220 222 222 223 226 226 227 231 229 226 228 230 229 226 221 219 222 228 231 233 235 232 229 226 221 218 221 220 214 210 206 204 204 207 210 212 211 209 206 202 201 202 202 202 203 203 202
240 236 244 255 253 242 238 232 224 222 221 217 217 220 225 223 218 220 224 227 228 226 228 233 233 231 233 233 233 230 224 220 220 225 232 236 237 235 228 224 222 221 220 217 215 214 210 206 205 205 208 211 213 212 209 209 208 205 203 202 203 205 206
247 238 242 252 255 246 236 234 233 230 225 222 222 221 222 224 222 219 221 227 230 229 231 235 232 231 231 230 234 234 227 221 220 222 227 232 236 237 236 230 223 218 214 214 215 213 212 212 209 206 207 211 214 214 214 216 217 213 210 207 205 205 206
259 241 239 246 253 251 239 231 233 233 228 226 227 227 227 230 234 229 222 225 230 234 237 235 229 226 223 222 229 233 229 224 224 224 223 226 230 234 240 240 232 222 212 209 212 212 211 213 213 210 209 210 214 217 217 220 222 222 222 220 217 212 208
270 250 243 248 253 254 245 234 232 234 233 230 231 232 232 234 238 237 230 227 230 236 239 236 232 227 219 217 221 226 226 225 225 226 226 227 229 231 235 236 232 228 217 207 209 212 210 211 215 214 211 210 214 217 219 221 221 221 223 224 224 225 220
278 262 252 251 252 253 248 239 235 236 237 236 235 235 236 237 238 238 235 231 231 235 235 234 236 233 222 217 218 216 218 221 224 227 229 231 232 233 234 229 224 222 216 209 210 211 209 210 212 212 210 209 211 215 219 222 222 221 222 219 215 222 228
283 270 262 255 251 251 247 242 240 237 237 240 240 238 238 238 236 237 237 235 235 233 230 233 239 239 230 224 220 213 210 216 223 227 230 232 234 237 237 231 223 215 211 211 211 210 209 210 211 210 209 208 209 212 216 221 224 224 224 220 211 211 223
286 276 275 278 263 251 246 244 243 242 243 245 245 241 237 234 233 234 236 238 240 237 232 234 240 243 239 231 224 217 213 214 220 226 232 238 242 243 236 229 224 218 214 212 211 210 210 210 211 211 210 208 207 208 210 215 221 224 223 220 215 210 214
279 277 284 295 289 264 254 250 246 247 249 249 248 241 232 226 227 230 235 241 243 241 238 238 240 240 237 232 228 225 220 219 222 228 236 244 251 251 242 230 224 221 219 215 213 215 213 207 206 209 212 212 210 207 208 211 215 220 221 218 216 215 214
274 279 285 296 305 288 271 268 264 258 254 251 249 241 228 222 223 228 235 243 244 240 240 240 236 233 231 230 231 230 228 227 226 228 234 244 254 255 246 235 228 224 221 217 216 220 220 211 205 205 208 214 215 211 210 211 211 214 217 216 215 217 221
273 281 280 288 298 288 272 269 268 265 257 249 245 241 231 226 226 230 235 238 238 239 241 237 231 230 231 233 235 235 235 234 231 229 232 240 252 259 251 238 231 229 228 223 218 220 223 221 216 210 207 210 214 214 214 214 213 212 212 214 216 222 229
270 275 271 271 277 277 278 276 268 263 259 246 238 238 237 233 233 234 233 233 234 237 239 235 229 229 233 236 238 238 238 238 237 235 233 234 242 256 258 244 232 228 230 228 223 221 223 224 222 218 214 213 212 212 215 218 218 215 213 216 221 228 232
265 272 275 273 268 271 283 289 281 278 273 255 236 232 236 237 234 233 231 231 233 234 236 234 231 231 233 235 236 237 237 240 241 238 233 236 243 250 250 245 235 228 227 228 227 225 225 224 221 219 219 219 218 215 215 218 220 219 218 219 224 229 231
267 272 280 282 277 276 282 288 291 296 299 288 265 247 243 238 232 231 231 230 229 232 235 235 233 233 235 235 232 232 237 242 242 238 237 242 247 245 239 233 230 228 228 230 230 227 226 225 222 221 221 222 222 220 218 219 220 221 223 225 227 230 231
281 281 285 286 283 282 282 282 285 297 314 331 330 292 265 251 241 238 237 233 230 231 234 234 233 233 236 237 232 229 238 246 242 238 238 236 234 233 227 219 215 215 218 223 225 226 226 225 224 225 227 226 225 223 223 225 226 224 225 227 229 231 233
274 277 280 282 280 280 281 280 281 294 314 331 325 284 262 256 251 246 243 240 234 231 230 229 230 231 234 237 233 229 235 241 236 236 239 236 230 227 219 209 205 201 187 185 201 213 222 226 226 228 229 228 227 226 226 230 232 230 228 228 230 233 235
267 273 279 283 284 279 275 275 278 286 299 309 305 289 267 254 249 244 242 241 235 228 227 226 226 228 230 233 232 228 230 232 232 241 247 242 235 229 216 201 197 196 186 174 174 181 196 213 221 225 227 227 227 228 229 233 237 237 235 234 235 237 240
267 272 278 285 290 287 277 274 276 274 268 268 280 296 295 275 259 247 242 239 234 229 227 226 225 225 226 228 228 228 231 235 239 250 252 239 228 222 214 202 196 198 196 190 189 182 176 178 192 211 221 225 226 226 227 231 236 239 239 237 238 240 242
267 267 271 278 286 295 293 284 278 273 266 262 269 283 290 286 280 267 255 245 237 230 226 226 227 226 226 227 227 228 234 238 243 255 250 231 223 229 234 227 221 222 219 208 204 210 209 203 204 208 212 219 222 221 219 221 224 229 233 233 235 241 243
262 267 277 284 288 287 278 270 269 273 277 280 281 282 281 282 282 278 271 264 248 235 227 224 224 226 227 229 228 230 235 238 245 260 252 229 229 252 263 245 234 234 237 233 225 230 237 228 223 227 226 220 222 223 222 220 221 227 236 235 232 236 243
266 271 276 280 279 273 264 266 276 282 287 289 288 285 278 273 270 271 275 278 268 250 237 230 226 225 227 230 232 233 233 233 237 246 242 228 237 261 269 251 234 225 227 233 228 227 237 240 235 232 228 223 225 232 237 237 236 243 249 240 229 227 243
266 268 264 260 264 269 272 280 289 292 291 287 281 276 269 261 257 258 265 275 278 268 251 239 234 231 229 229 232 231 227 227 227 226 226 230 239 253 260 256 245 231 225 225 221 218 224 231 235 235 231 228 230 236 245 251 253 257 259 255 252 256 275
255 256 253 251 259 269 279 287 291 293 293 288 280 269 259 249 243 242 244 250 260 266 262 248 238 234 229 225 227 223 216 218 222 222 222 224 226 237 248 246 243 239 234 230 227 225 224 224 225 225 223 223 226 234 247 258 265 269 271 272 276 279 278
251 251 250 255 263 273 283 291 293 294 297 296 288 272 255 242 232 229 228 230 236 245 250 243 233 228 224 217 216 214 206 207 214 218 219 220 225 236 243 237 234 235 236 234 231 230 229 227 226 225 223 224 226 230 240 249 259 269 276 281 287 286 279
257 260 262 265 270 279 288 295 299 301 303 301 293 279 261 243 229 222 220 220 223 230 235 232 224 221 216 209 208 210 206 201 204 211 217 222 225 228 230 232 232 232 233 235 233 230 229 228 229 230 229 230 231 230 234 241 249 257 265 270 274 278 278
258 263 270 276 281 286 291 298 304 309 312 308 301 290 273 248 227 217 214 214 215 220 225 226 223 217 211 204 204 208 207 199 198 205 213 218 218 217 218 223 228 230 231 233 233 232 230 229 229 232 233 235 237 234 230 234 243 251 259 264 263 259 262
264 268 272 277 282 287 293 302 308 315 319 317 310 297 277 249 223 212 210 211 211 214 218 222 222 218 208 199 199 203 204 200 195 196 202 207 208 208 211 216 223 228 231 232 231 231 231 229 229 231 232 233 237 238 236 233 234 240 248 256 258 254 253
266 272 277 281 281 282 290 300 306 313 322 323 317 298 267 238 214 205 205 206 207 212 218 222 223 220 212 203 200 203 207 209 209 208 209 212 213 211 211 213 219 225 229 230 230 230 230 229 229 230 232 234 234 235 238 238 235 234 237 243 250 255 257
271 277 283 286 284 282 287 294 298 309 323 329 328 311 254 220 204 198 199 202 206 212 219 225 226 223 217 212 208 205 204 208 214 217 219 222 222 219 216 216 219 224 228 230 231 230 230 229 229 229 231 235 236 237 237 239 240 241 239 239 241 246 251
275 277 280 282 282 280 280 283 288 301 319 331 336 330 254 215 206 200 195 197 205 211 217 223 227 225 221 218 216 214 211 210 214 218 220 221 221 221 221 222 224 227 231 234 235 235 233 231 231 230 231 234 237 239 240 240 240 242 243 243 244 245 247
274 275 274 275 278 277 273 273 278 289 306 323 334 337 300 220 212 207 201 202 209 215 217 219 223 225 225 223 220 219 220 221 221 222 222 222 222 224 225 227 229 231 234 238 241 241 240 238 236 235 235 236 238 240 242 243 243 243 243 244 245 247 248
Height
5853 5854 5855 5855 5855 5855 5855 5857 5858 5857 5857 5858 5858 5859 5860 5860 5860 5860 5861 5862 5864 5866 5867 5869 5870 5871 5873 5874 5874 5874 5875 5875 5876 5878 5879 5881 5883 5884 5884 5885 5886 5887 5888 5890 5892 5893 5895 5896 5896 5897 5897 5898 5899 5900 5900 5901 5903 5904 5905 5907 5908 5910 5911
5851 5851 5852 5851 5851 5851 5851 5853 5854 5854 5855 5856 5856 5856 5857 5858 5858 5858 5859 5860 5862 5864 5865 5866 5867 5868 5870 5872 5873 5873 5873 5874 5875 5877 5878 5879 5881 5882 5882 5882 5883 5884 5886 5888 5890 5892 5893 5895 5895 5896 5896 5897 5898 5899 5900 5901 5902 5903 5905 5906 5907 5909 5910
5850 5849 5850 5850 5849 5849 5850 5850 5851 5851 5853 5854 5854 5854 5855 5855 5856 5857 5857 5858 5860 5861 5862 5863 5864 5864 5866 5868 5870 5871 5872 5872 5873 5874 5875 5876 5878 5880 5881 5881 5881 5882 5884 5886 5888 5889 5891 5893 5894 5895 5896 5897 5897 5898 5899 5900 5902 5903 5904 5906 5907 5908 5909
5849 5848 5848 5848 5848 5848 5849 5849 5849 5849 5851 5851 5852 5852 5853 5854 5855 5855 5855 5856 5857 5859 5860 5861 5861 5861 5862 5864 5866 5868 5869 5870 5870 5871 5872 5873 5875 5877 5879 5881 5881 5881 5881 5883 5885 5887 5889 5892 5893 5894 5895 5896 5897 5898 5899 5900 5901 5903 5904 5905 5906 5907 5909
5848 5847 5846 5846 5847 5847 5847 5848 5847 5847 5849 5850 5850 5850 5850 5851 5851 5852 5853 5854 5855 5856 5857 5858 5859 5859 5860 5862 5864 5865 5866 5867 5868 5868 5869 5870 5872 5874 5877 5879 5880 5880 5880 5881 5883 5885 5887 5889 5891 5893 5894 5896 5896 5897 5898 5899 5900 5901 5903 5904 5905 5906 5908
5847 5846 5844 5844 5845 5845 5845 5846 5845 5846 5847 5848 5849 5849 5848 5849 5849 5849 5850 5850 5852 5853 5854 5855 5857 5857 5858 5860 5861 5863 5864 5864 5865 5866 5866 5867 5869 5871 5873 5875 5876 5878 5879 5880 5881 5883 5885 5887 5890 5892 5893 5895 5896 5897 5897 5898 5899 5900 5901 5903 5904 5905 5906
5844 5844 5842 5842 5843 5844 5844 5844 5844 5845 5845 5846 5847 5847 5847 5847 5848 5848 5848 5848 5849 5851 5852 5854 5855 5856 5857 5858 5859 5861 5861 5862 5863 5863 5864 5866 5867 5868 5870 5871 5873 5875 5877 5878 5880 5881 5883 5885 5888 5890 5892 5893 5895 5896 5896 5897 5898 5898 5899 5901 5902 5904 5905
5841 5841 5840 5840 5841 5841 5842 5842 5842 5843 5843 5843 5844 5845 5845 5845 5846 5846 5846 5847 5847 5849 5850 5851 5853 5854 5855 5856 5857 5858 5859 5860 5861 5862 5862 5863 5864 5865 5866 5868 5870 5872 5874 5875 5878 5880 5881 5883 5886 5888 5889 5891 5892 5894 5895 5895 5896 5897 5898 5899 5900 5902 5904
5839 5839 5839 5838 5838 5838 5838 5838 5839 5840 5841 5841 5841 5842 5843 5843 5843 5844 5844 5845 5845 5846 5847 5848 5850 5851 5853 5854 5855 5856 5857 5858 5859 5859 5860 5860 5860 5861 5863 5865 5866 5868 5870 5872 5875 5878 5880 5882 5884 5885 5887 5889 5890 5892 5893 5895 5896 5897 5897 5898 5899 5900 5901
5837 5837 5837 5836 5835 5835 5835 5835 5835 5836 5838 5839 5839 5839 5841 5841 5841 5842 5842 5843 5843 5844 5845 5846 5848 5849 5851 5852 5853 5854 5855 5856 5856 5856 5856 5856 5857 5858 5860 5863 5865 5866 5867 5868 5871 5874 5877 5879 5881 5883 5885 5887 5888 5890 5892 5894 5895 5897 5898 5899 5900 5900 5900
5835 5834 5834 5834 5833 5832 5832 5832 5832 5833 5834 5835 5836 5837 5838 5838 5838 5839 5840 5841 5842 5842 5844 5846 5847 5848 5848 5849 5851 5852 5852 5853 5853 5853 5853 5853 5854 5855 5857 5859 5862 5864 5866 5866 5868 5870 5874 5877 5879 5880 5883 5885 5886 5888 5890 5891 5892 5894 5895 5897 5899 5901 5901
5833 5832 5832 5831 5830 5830 5830 5829 5829 5829 5830 5831 5832 5833 5834 5835 5835 5836 5838 5839 5840 5841 5843 5845 5845 5846 5847 5847 5848 5848 5849 5850 5850 5850 5851 5850 5851 5852 5854 5855 5856 5859 5862 5864 5864 5866 5870 5874 5876 5878 5880 5881 5883 5885 5887 5888 5890 5891 5892 5893 5895 5898 5901
5831 5830 5830 5829 5828 5827 5827 5827 5826 5827 5827 5827 5828 5829 5830 5831 5832 5833 5835 5838 5839 5839 5841 5843 5843 5844 5844 5844 5844 5845 5845 5846 5847 5848 5848 5849 5849 5849 5850 5852 5853 5854 5856 5858 5861 5862 5864 5869 5873 5875 5876 5878 5880 5882 5884 5886 5887 5889 5891 5891 5892 5895 5898
5829 5828 5827 5827 5826 5825 5824 5824 5824 5824 5824 5824 5824 5824 5825 5827 5829 5831 5833 5835 5836 5838 5839 5840 5840 5841 5842 5841 5842 5843 5843 5844 5844 5845 5846 5847 5848 5848 5848 5848 5850 5851 5853 5855 5858 5859 5860 5863 5867 5871 5872 5874 5876 5879 5881 5882 5884 5887 5888 5890 5891 5892 5894
5827 5826 5825 5825 5824 5823 5822 5822 5822 5822 5821 5820 5820 5819 5820 5822 5825 5827 5830 5832 5833 5835 5836 5836 5837 5838 5839 5840 5840 5841 5842 5842 5842 5843 5844 5844 5845 5846 5846 5846 5847 5848 5850 5852 5854 5857 5859 5861 5863 5866 5868 5870 5872 5875 5877 5879 5881 5884 5886 5887 5889 5890 5891
5824 5824 5824 5823 5822 5822 5821 5820 5820 5819 5819 5818 5817 5817 5817 5819 5821 5824 5827 5829 5830 5831 5832 5833 5834 5836 5837 5838 5839 5840 5840 5841 5841 5841 5842 5842 5842 5842 5843 5845 5845 5845 5847 5849 5851 5855 5858 5861 5862 5863 5865 5867 5868 5871 5873 5876 5878 5880 5882 5884 5885 5887 5889
5823 5822 5822 5822 5821 5820 5819 5819 5818 5817 5817 5816 5816 5816 5817 5818 5819 5821 5823 5825 5826 5828 5829 5831 5832 5833 5835 5836 5837 5838 5839 5839 5839 5839 5839 5840 5840 5840 5840 5841 5843 5844 5845 5846 5849 5852 5856 5859 5862 5863 5864 5864 5865 5867 5870 5872 5875 5877 5879 5880 5882 5884 5885
5821 5820 5820 5821 5820 5819 5818 5817 5816 5815 5815 5814 5814 5815 5816 5817 5818 5819 5820 5822 5823 5825 5827 5828 5829 5831 5832 5833 5835 5836 5837 5837 5837 5837 5837 5838 5839 5839 5838 5838 5839 5841 5842 5844 5846 5850 5853 5856 5859 5861 5862 5863 5864 5866 5869 5871 5873 5874 5876 5878 5879 5881 5882
5820 5819 5818 5819 5818 5817 5816 5816 5815 5814 5814 5813 5813 5813 5814 5815 5816 5817 5818 5819 5821 5823 5825 5826 5827 5828 5830 5831 5833 5834 5835 5835 5835 5835 5835 5837 5838 5837 5836 5836 5836 5838 5839 5841 5844 5847 5849 5852 5854 5856 5858 5860 5863 5866 5868 5869 5871 5873 5874 5875 5877 5878 5879
5818 5817 5816 5817 5817 5816 5815 5815 5814 5813 5813 5812 5811 5812 5813 5813 5814 5814 5815 5817 5818 5820 5822 5823 5824 5826 5827 5829 5831 5832 5833 5833 5834 5834 5835 5836 5836 5835 5834 5834 5835 5836 5837 5838 5841 5843 5845 5848 5850 5852 5854 5857 5860 5864 5866 5868 5869 5871 5872 5872 5873 5875 5875
5815 5815 5815 5815 5815 5814 5813 5813 5813 5812 5812 5811 5810 5810 5811 5811 5812 5813 5813 5815 5816 5818 5819 5821 5822 5824 5825 5826 5828 5830 5831 5831 5832 5833 5834 5835 5835 5834 5833 5833 5834 5835 5835 5836 5838 5840 5842 5845 5847 5849 5851 5854 5857 5860 5864 5866 5866 5867 5867 5868 5869 5870 5871
5813 5813 5813 5813 5813 5813 5812 5812 5812 5811 5810 5810 5810 5809 5810 5810 5811 5811 5812 5813 5815 5816 5817 5819 5820 5822 5823 5824 5826 5828 5829 5829 5830 5831 5833 5834 5834 5834 5833 5833 5834 5835 5835 5836 5837 5838 5840 5842 5845 5847 5849 5851 5854 5857 5861 5862 5861 5860 5862 5863 5864 5865 5865
5811 5811 5811 5810 5811 5811 5810 5810 5810 5810 5809 5809 5809 5809 5809 5809 5810 5810 5811 5812 5813 5815 5816 5817 5818 5819 5821 5822 5824 5826 5827 5827 5829 5830 5831 5832 5833 5833 5833 5833 5834 5835 5836 5837 5838 5839 5840 5841 5842 5844 5846 5848 5851 5854 5856 5857 5855 5855 5857 5860 5860 5860 5861
5810 5809 5809 5808 5808 5809 5809 5809 5809 5809 5808 5808 5808 5809 5809 5809 5809 5810 5810 5811 5812 5813 5815 5816 5817 5817 5818 5819 5822 5824 5825 5826 5827 5829 5830 5831 5831 5831 5832 5834 5835 5836 5837 5838 5839 5839 5840 5841 5842 5844 5845 5846 5848 5850 5851 5852 5852 5853 5855 5856 5857 5856 5857
5809 5808 5807 5807 5807 5808 5807 5807 5807 5807 5807 5807 5808 5808 5808 5808 5808 5809 5809 5809 5810 5812 5813 5814 5814 5815 5816 5817 5819 5821 5823 5825 5826 5828 5829 5830 5830 5831 5832 5833 5835 5836 5837 5839 5839 5839 5841 5842 5843 5844 5845 5846 5847 5848 5848 5849 5850 5852 5852 5853 5853 5853 5853
5807 5806 5806 5805 5805 5806 5806 5805 5805 5806 5806 5806 5807 5807 5807 5807 5807 5807 5807 5808 5809 5810 5811 5811 5812 5813 5814 5814 5815 5818 5820 5822 5825 5826 5827 5828 5830 5830 5831 5833 5834 5835 5837 5838 5840 5840 5840 5841 5842 5844 5845 5846 5847 5848 5848 5848 5849 5849 5850 5851 5851 5850 5850
5805 5805 5804 5804 5803 5804 5804 5804 5804 5805 5805 5805 5805 5806 5806 5806 5806 5806 5805 5806 5807 5808 5809 5809 5810 5811 5811 5812 5813 5815 5817 5820 5822 5825 5826 5828 5829 5829 5830 5831 5833 5835 5837 5838 5840 5840 5841 5841 5841 5843 5844 5846 5847 5847 5848 5848 5848 5848 5849 5849 5849 5848 5848
5803 5803 5803 5803 5802 5802 5803 5803 5803 5803 5803 5803 5803 5804 5804 5804 5804 5804 5804 5804 5805 5806 5807 5808 5809 5809 5810 5811 5811 5813 5815 5818 5820 5822 5825 5827 5828 5828 5828 5829 5831 5833 5835 5837 5839 5840 5841 5841 5841 5842 5843 5844 5846 5846 5846 5847 5847 5847 5847 5847 5846 5846 5846
5801 5801 5801 5801 5801 5801 5801 5801 5801 5801 5800 5800 5800 5801 5801 5801 5802 5801 5801 5802 5803 5804 5805 5806 5807 5808 5809 5810 5810 5811 5813 5815 5817 5819 5822 5824 5826 5826 5827 5828 5830 5831 5833 5836 5838 5839 5840 5841 5841 5841 5842 5843 5844 5844 5844 5845 5845 5845 5845 5844 5843 5843 5844
5799 5799 5799 5799 5799 5799 5799 5799 5799 5798 5798 5798 5797 5797 5797 5797 5798 5798 5798 5799 5800 5801 5803 5804 5805 5807 5808 5809 5809 5810 5811 5812 5814 5816 5818 5821 5823 5824 5825 5827 5828 5830 5832 5834 5836 5837 5838 5839 5840 5840 5841 5841 5842 5842 5843 5843 5843 5843 5843 5843 5843 5842 5842
5797 5797 5797 5797 5797 5797 5797 5797 5796 5796 5796 5795 5794 5793 5793 5794 5794 5795 5796 5797 5798 5800 5801 5803 5804 5805 5806 5807 5808 5809 5810 5811 5812 5814 5816 5818 5820 5821 5823 5825 5827 5828 5830 5832 5834 5835 5837 5838 5838 5838 5838 5839 5840 5841 5841 5841 5841 5841 5841 5841 5842 5842 5842
5795 5795 5795 5795 5795 5795 5795 5795 5794 5793 5793 5792 5791 5790 5791 5791 5792 5793 5794 5796 5797 5798 5800 5801 5802 5803 5804 5806 5807 5808 5808 5809 5811 5812 5814 5816 5817 5819 5821 5823 5825 5827 5828 5830 5832 5833 5834 5836 5836 5836 5837 5837 5837 5838 5839 5839 5839 5839 5839 5839 5840 5840 5841
5792 5793 5793 5793 5793 5793 5793 5793 5792 5791 5790 5789 5788 5788 5788 5788 5789 5791 5792 5794 5795 5797 5798 5799 5800 5802 5803 5804 5805 5806 5807 5808 5810 5811 5813 5814 5815 5817 5819 5821 5823 5825 5826 5828 5829 5831 5832 5833 5834 5834 5835 5835 5835 5836 5837 5838 5838 5838 5838 5837 5837 5838 5839
5790 5791 5791 5791 5792 5792 5792 5792 5790 5789 5788 5787 5786 5785 5784 5785 5787 5788 5790 5792 5794 5795 5796 5797 5798 5800 5801 5802 5804 5805 5806 5807 5808 5810 5811 5813 5814 5815 5816 5818 5820 5822 5824 5825 5827 5828 5829 5830 5831 5831 5832 5833 5834 5834 5835 5835 5836 5836 5837 5837 5836 5836 5837
5788 5789 5789 5789 5789 5790 5791 5790 5788 5788 5788 5786 5784 5783 5782 5783 5784 5786 5788 5790 5792 5793 5795 5796 5797 5798 5799 5800 5802 5803 5804 5805 5806 5807 5809 5810 5812 5813 5814 5816 5818 5820 5821 5823 5824 5825 5826 5827 5828 5829 5829 5830 5831 5832 5833 5833 5834 5834 5835 5835 5835 5835 5835
5786 5787 5787 5787 5788 5789 5789 5788 5787 5787 5787 5785 5784 5782 5782 5782 5783 5785 5787 5789 5790 5792 5793 5794 5795 5796 5797 5798 5799 5800 5801 5803 5804 5805 5806 5808 5809 5810 5812 5813 5815 5817 5819 5820 5822 5822 5823 5824 5825 5826 5827 5827 5828 5829 5830 5831 5832 5832 5833 5833 5834 5834 5834
5783 5784 5785 5786 5786 5787 5787 5787 5786 5786 5785 5784 5783 5782 5782 5782 5783 5784 5786 5787 5789 5790 5792 5793 5794 5794 5795 5796 5797 5798 5799 5800 5801 5802 5803 5805 5806 5808 5810 5812 5813 5815 5816 5818 5819 5820 5821 5822 5823 5824 5824 5825 5826 5827 5828 5829 5829 5830 5831 5831 5832 5832 5832